Location: Choisy
(48.7685°N, 2.4187°E)
Time: 21:59:29
(UTC+00:00)

Spot 2 - Pass Details

Date: 24 October 2021
Orbit: 570 x 772 km, 98.7° (Epoch: 04 December)

Event Time Altitude Azimuth Distance (km) Brightness Sun altitude
Rises 17:45:38 0° 145° (SE) 2,812 7.1 -10.8°
Reaches altitude 10° 17:47:48 10° 139° (SE) 1,937 6.3 -11.2°
Maximum altitude 17:51:47 43° 68° (ENE) 873 4.4 -11.8°
Drops below altitude 10° 17:55:59 10° 357° (N) 2,054 6.7 -12.5°
Sets 17:58:21 0° 351° (N) 3,004 7.7 -12.9°
